Flag for Germany Weather past 2 weeks in Gotha, Thuringia, Germany

Now
55 °F

Overcast.


Feels Like: 55 °F
Forecast: 44 / 65 °F
Wind: 3 mph from Southwest

Location: Erfurt-Bindersleben

Current Time: Apr 26, 2015 at 11:08:48 AM

Latest Report: Apr 26, 2015 at 10:00 AM


Visibility: 16 mi

Pressure: 29.79 "Hg

Humidity: 80%

Dew point: 49 °F

Location of GothaLocation

Historic Weather in Gotha — Graph

°F

Gotha temperature yesterday

Maximum temperature yesterday: 64 °F (at 12:00 PM)
Minimum temperature yesterday: 48 °F (at 5:00 AM)
Average temperature yesterday: 57 °F

Past Weeks' High & Low Weather Summary

 TemperatureHumidityPressure
High72 °F (Apr 15, 4:00 PM)100% (Apr 23, 5:00 AM)30.47 "Hg (Apr 23, 5:00 AM)
Low29 °F (Apr 19, 6:00 AM)23% (Apr 21, 7:00 PM)29.75 "Hg (Apr 25, 5:00 PM)
Average50 °F61%30.16 "Hg
* Reported Apr 11 10:00 AM — Apr 26 10:00 AM, Gotha, Weather by CustomWeather, © 2015

Note: Actual official high and low records may vary slightly from our data, if they occured in-between our weather recording intervals... More about our weather records

Advertising

Gotha weather history for previous 24 hours

 ConditionsComfort  
Time TempWeatherWind HumidityBarometerVisibility
10:00 AM
Sun, Apr 26
55 °FOvercast.3 mph80%29.79 "Hg16 mi
9:00 AM53 °FOvercast.3 mph88%29.80 "Hg19 mi
8:00 AM52 °FLight rain. Overcast.5 mph88%29.80 "Hg22 mi
7:00 AM49 °FOvercast.3 mph93%29.81 "Hg22 mi
6:00 AM48 °FOvercast.3 mph94%29.80 "Hg11 mi
5:00 AM47 °FPassing clouds.3 mph96%29.82 "Hg22 mi
4:00 AM48 °FPassing clouds.1 mph93%29.82 "Hg25 mi
3:00 AM49 °FClear.5 mph94%29.81 "Hg25 mi
2:00 AM49 °FPassing clouds.5 mph93%29.82 "Hg25 mi
1:00 AM51 °FPassing clouds.5 mph87%29.82 "Hg25 mi
12:00 AM54 °FOvercast.5 mph83%29.81 "Hg25 mi
11:00 PM
Sat, Apr 25
55 °FOvercast.5 mph83%29.80 "Hg25 mi
10:00 PM56 °FLight rain. Overcast.7 mph79%29.80 "Hg22 mi
9:00 PM57 °FOvercast.6 mph70%29.79 "Hg25 mi
8:00 PM59 °FOvercast.7 mph65%29.76 "Hg25 mi
7:00 PM60 °FOvercast.8 mph62%29.76 "Hg25 mi
6:00 PM62 °FOvercast.7 mph54%29.75 "Hg28 mi
5:00 PM63 °FOvercast.8 mph50%29.75 "Hg25 mi
4:00 PM62 °FOvercast.7 mph52%29.77 "Hg28 mi
3:00 PM61 °FOvercast.6 mph48%29.79 "Hg25 mi
2:00 PM63 °FOvercast.7 mph39%29.78 "Hg25 mi
1:00 PM63 °FOvercast.6 mph39%29.79 "Hg25 mi
12:00 PM64 °FOvercast.6 mph39%29.79 "Hg28 mi
11:00 AM63 °FOvercast.6 mph39%29.80 "Hg28 mi
Weather by CustomWeather, © 2015

See weather overviewHow to use our weather pages